Weather History for Broken Bow, NE

Change the Weather History Date:

Sunday, December 1, 2013

  Actual Average Record
Temperature  
Mean Temperature 33 °F 28 °F  
Max Temperature 48 °F 41 °F 70 °F (2012)
Min Temperature 17 °F 16 °F -11 °F (1983)
Degree Days  
Heating Degree Days 32 37  
Month to date heating degree days 32 37  
Cooling Degree Days 0 0  
Month to date cooling degree days 0 0  
Year to date cooling degree days 814 768  
Moisture  
Dew Point 24 °F    
Average Humidity 73    
Maximum Humidity 100    
Minimum Humidity 46    
Precipitation  
Precipitation 0.00 in 0.05 in 0.58 in (1981)
Sea Level Pressure  
Sea Level Pressure 30.04 in    
Wind  
Wind Speed 2 mph (North)    
Max Wind Speed 10 mph    
Max Gust Speed 14 mph    
Visibility 10 miles    
Events      
T = Trace of Precipitation, MM = Missing Value Source: NWS Daily Summary

Daily Weather History Graph

Daily Weather History Graph

Search for Another Location

Airport:

Trip Planner

Search our weather history database for the weather conditions in past years. The results will help you decide how hot, cold, wet, or windy it might be!

Date:

Astronomy

Dec. 01, 2013 Rise Set
Actual Time 7:45 AM CST 5:09 PM CST
Civil Twilight 7:14 AM CST 5:40 PM CST
Nautical Twilight 6:40 AM CST 6:14 PM CST
Astronomical Twilight 6:07 AM CST 6:48 PM CST
Moon 6:04 AM CST (12/1) 4:21 PM CST (12/1)
Length of Visible Light 10h 25m
Length of Day
9h 24m
Waning Crescent, 2% of the Moon is Illuminated
Dec 1
Waning Crescent
Dec 2
New
Dec 9
First Quarter
Dec 17
Full
Dec 25
Last Quarter

Hourly Weather History & Observations

Time (CST) Temp. Windchill Dew Point Humidity Pressure Visibility Wind Dir Wind Speed Gust Speed Precip Events Conditions
12:53 AM 24.1 °F 19.7 °F 21.9 °F 91% 30.17 in 10.0 mi NNW 3.5 mph - N/A   Clear
1:53 AM 21.9 °F - 19.9 °F 92% 30.16 in 10.0 mi Calm Calm - N/A   Clear
2:53 AM 19.9 °F - 19.0 °F 96% 30.15 in 10.0 mi Calm Calm - N/A   Clear
3:53 AM 19.9 °F - 18.0 °F 92% 30.14 in 10.0 mi Calm Calm - N/A   Clear
4:53 AM 19.0 °F 12.3 °F 18.0 °F 96% 30.16 in 10.0 mi North 4.6 mph - N/A   Clear
5:53 AM 19.0 °F - 17.1 °F 92% 30.17 in 10.0 mi Calm Calm - N/A   Clear
6:53 AM 18.0 °F - 16.0 °F 92% 30.18 in 10.0 mi Calm Calm - N/A   Clear
7:53 AM 18.0 °F - 16.0 °F 92% 30.18 in 10.0 mi Calm Calm - N/A   Clear
8:53 AM 21.9 °F - 21.0 °F 96% 30.17 in 10.0 mi Calm Calm - N/A   Clear
9:53 AM 30.9 °F 27.5 °F 28.0 °F 89% 30.15 in 10.0 mi South 3.5 mph - N/A   Clear
10:53 AM 36.0 °F 31.1 °F 28.0 °F 73% 30.12 in 10.0 mi SE 5.8 mph - N/A   Clear
11:53 AM 37.9 °F 35.5 °F 30.0 °F 73% 30.09 in 10.0 mi SSE 3.5 mph - N/A   Scattered Clouds
12:53 PM 39.9 °F 33.9 °F 28.9 °F 65% 30.05 in 10.0 mi South 9.2 mph - N/A   Mostly Cloudy
1:53 PM 43.0 °F 37.7 °F 30.0 °F 60% 30.02 in 10.0 mi SW 9.2 mph - N/A   Mostly Cloudy
2:53 PM 46.0 °F 43.1 °F 28.9 °F 51% 29.97 in 10.0 mi South 5.8 mph - N/A   Clear
3:53 PM 48.0 °F - 28.9 °F 48% 29.96 in 10.0 mi Calm Calm - N/A   Clear
4:53 PM 44.1 °F - 28.0 °F 53% 29.95 in 10.0 mi Calm Calm - N/A   Clear
5:53 PM 26.1 °F - 21.0 °F 81% 29.96 in 10.0 mi Calm Calm - N/A   Clear
6:53 PM 27.0 °F - 21.9 °F 81% 29.95 in 10.0 mi Calm Calm - N/A   Clear
7:53 PM 27.0 °F - 23.0 °F 85% 29.93 in 10.0 mi Calm Calm - N/A   Clear
8:53 PM 30.0 °F - 26.1 °F 85% 29.90 in 10.0 mi Calm Calm - N/A   Clear
9:53 PM 30.9 °F - 27.0 °F 85% 29.86 in 10.0 mi Calm Calm - N/A   Clear
10:53 PM 33.1 °F - 28.9 °F 85% 29.82 in 10.0 mi Calm Calm - N/A   Overcast
11:53 PM 33.1 °F - 28.9 °F 85% 29.80 in 10.0 mi Calm Calm - N/A   Overcast